Location: �clusier
(49.9361°N, 2.7869°E)
Time: 05:31:55
(UTC+00:00)

Cosmos 2016 Rocket - Pass Details

Date: 26 October 2021
Orbit: 947 x 1000 km, 83.0° (Epoch: 05 December)

Event Time Altitude Azimuth Distance (km) Brightness Sun altitude
Exits shadow 21:56:23 12° 298° (WNW) 2,563 6.6 -47.9°
Maximum altitude 21:57:15 12° 306° (NW) 2,540 6.6 -48.0°
Drops below altitude 10° 21:59:35 10° 329° (NNW) 2,692 6.8 -48.2°
Sets 22:04:02 0° 359° (N) 3,635 7.5 -48.6°
